Weather in Lobtsovo

Russia / Ivanovo Oblast     56°45′13″N   40°05′41″E
temp.,
°C
wind,
m/s
gust,
m/s
humid.,
%
clouds,
%
prec.,
mm/h
press.,
hPa
HPBL,
m
2 july, sat
sat200:00+10nne22765 0.0 102226
03:00+9nnw22774 0.0 102340
06:00+12nnw267167 0.0 1023156
09:00+19nnw465117 0.0 1022691
12:00+23nnw46415 0.0 10211700
15:00+24nnw464090 0.0 10191672
18:00+21n3654100 0.0 1018434
21:00+18w2562100 0.0 1017109
3 july, sun
sun300:00+17wnw397597 0.0 1016187
03:00+14nnw37895 0.0 1015138
06:00+17n26824 0.0 1015198
09:00+22ne46561 0.0 1015906
12:00+24nne56430 0.0 10161464
15:00+25nne45420 0.0 10161662
18:00+24n34501 0.0 10161393
21:00+18n22733 0.0 101616
4 july, mon
mon400:00+15n22776 0.0 101714
03:00+14nnw22840 0.0 101717
06:00+17nnw12755 0.0 1017103
09:00+23n23536 0.0 1017707
12:00+26n23405 0.0 10162139
15:00+28n33355 0.0 10152506
18:00+27nne22479 0.0 10151390
21:00+20se116562 0.0 101511
5 july, tue
tue500:00+20ssw246085 0.0 101661
03:00+19wsw116187 0.0 101617
06:00+20sw1168100 0.0 101639
09:00+26ssw234712 0.0 1016575
12:00+28ssw3339100 0.0 10151797
15:00+29ssw433694 0.0 10141992
18:00+20sw5118896 1.1 1015382
21:00+17sw1295100 2.3 101546
6 july, wed
wed600:00+17sw1296100 0.1 101444
03:00+16ssw2396100 0.1 101462
06:00+18ssw1393100 0.3 1014110
09:00+22sw367998 1.0 1013317
12:00+21ssw258894 0.5 1014297
15:00+27ssw4655100 0.6 10121397
18:00+22w128941 4.3 1012109
21:00+20sse229369 5.3 101120